Location: Days
(41.3591°N, 106.7339°W)
Time: 19:17:28
(UTC+00:00)

RS-15 - Pass Details

Date: 07 July 2022
Orbit: 1881 x 2163 km, 64.8° (Epoch: 15 August)

Event Time Altitude Azimuth Distance (km) Brightness Sun altitude
Rises 04:41:30 0° 324° (NW) 5,696 12.3 -17.2°
Reaches altitude 10° 04:45:10 10° 329° (NNW) 4,691 11.3 -17.6°
Maximum altitude 04:57:17 55° 46° (NE) 2,466 8.6 -18.9°
Enters shadow 05:06:30 19° 118° (ESE) 3,897 9.1 -19.8°
